Tracking 23645 objects as of 21-Sep-2021
HD Live streaming from Space Station
objects crossing your sky now

STARLINK-1517

Track STARLINK-1517 now!
10-day predictions
STARLINK-1517 is classified as:


NORAD ID: 45787
Int'l Code: 2020-038BK
Perigee: 553.7 km
Apogee: 555.0 km
Inclination: 53.1 °
Period: 95.6 minutes
Semi major axis: 6925 km
RCS: Unknown
Launch date: June 13, 2020
Source: United States (US)
Launch site: AIR FORCE EASTERN TEST RANGE (AFETR)
aabbcc
Your satellite tracking list
Your tracking list is empty




NASA's NSSDC Master Catalog

Two Line Element Set (TLE):
1 45787U 20038BK  21264.44625893 -.00000882  00000-0 -40344-4 0  9999
2 45787  53.0550 315.0703 0000912 106.8605 253.2484 15.06394557 71043
Source of the keplerian elements: AFSPC